Content
SEND FEEDBACK

Daily
Averages
Monthly
Summary
Afghanistan

KABUL, AFGHANISTAN


Home > Asia > Afghanistan
Elevation: 5874 feet     Latitude: 34 33N     Longitude: 069 13E

WEATHER
 
SELECT A DAY
Number of Records: 115,190;   Date Range: 3/25/02 - 11/26/14
 
SHARE

PRINT THIS DATA

[ ← Previous Day ]
WEATHER ALMANAC - JANUARY 31, 2013
[ Next Day → ]
[ °C ]   °F
Weather ElementAverageHighLow
Temperature33.3 °F41 °F (12:20 pm) (9:20 am)
Dewpoint32.1 °F39.2 °F (10:20 am) (7:00 pm)
Humidity95.3 %100 % (1:03 am)81 % (12:20 pm)
Barometer30.29 in30.36 in (10:20 am)30.24 in (3:20 am)
Wind Speed4.5 mph9.2 mph (4:20 pm)
Weather ElementAverage
Visibility1.8 mi
Wind DirectionSE (132.3 °)

Weather ElementTotal
Precipitation---
Heating Degree Days44.5 (Base 65)
Averaged from 30 records on January 31, 2013
WEATHER CONDITIONS BREAKOUT
WIND DIRECTION BREAKOUT
WEATHER BY HOUR - JANUARY 31, 2013
[ °C ]   °F
Local TimeTemperatureDewpointHumidityBarometerVisibilityWind DirectionWind SpeedGust SpeedPrecipitationEventsConditions
1:03 AM32.0 °F32.0 °F100 %30.27 in1.6 miSSE (150°)4.6 mphSnowLight Snow
1:20 AM32.0 °F32.0 °F100 %30.27 in1.6 miSSE (160°)5.8 mphSnowLight Snow
2:00 AM32.0 °F32.0 °F100 %30.27 in0.8 miEast (90°)3.5 mphSnowSnow
2:20 AM32.0 °F32.0 °F100 %30.27 in0.8 miSE (130°)2.3 mphSnowSnow
3:05 AM32.0 °F32.0 °F100 %30.27 in1.1 miWSW (250°)2.3 mphSnowLight Snow
3:20 AM32.0 °F32.0 °F100 %30.24 in1.1 miSSW (200°)3.5 mphSnowLight Snow
4:20 AM32.0 °F32.0 °F100 %30.24 in1.1 miNorth (350°)3.5 mphSnowLight Snow
4:57 AM32.0 °F32.0 °F100 %30.24 in0.7 miWNW (290°)3.5 mphSnowLight Snow
5:20 AM32.0 °F32.0 °F100 %30.27 in0.6 miNNW (330°)2.3 mphSnowSnow
6:20 AM32.0 °F32.0 °F100 %30.27 in0.6 miEast (100°)4.6 mphSnowSnow
7:20 AM32.0 °F32.0 °F100 %30.30 in0.6 miSouth (170°)2.3 mphSnowLight Snow
7:50 AM32.0 °F32.0 °F100 %30.33 in1.0 miNorth (10°)3.5 mphSnowLight Snow
8:20 AM33.8 °F33.8 °F100 %30.33 in1.9 miENE (60°)5.8 mphOvercast
9:20 AM0.0 °F0.0 °F30.33 in2.5 miEast (90°)4.6 mphOvercast
10:20 AM39.2 °F39.2 °F100 %30.36 in2.5 miESE (110°)1.2 mphOvercast
11:20 AM37.4 °F33.8 °F87 %30.33 in2.5 miENE (70°)4.6 mphMostly Cloudy
12:20 PM41.0 °F35.6 °F81 %30.33 in2.5 miESE (110°)3.5 mphOvercast
1:20 PM41.0 °F35.6 °F81 %30.30 in2.5 miEast (80°)5.8 mphMostly Cloudy
2:20 PM39.2 °F35.6 °F87 %30.27 in2.5 miEast (80°)5.8 mphMostly Cloudy
3:20 PM41.0 °F35.6 °F81 %30.27 in3.1 miEast (80°)4.6 mphMostly Cloudy
4:20 PM39.2 °F35.6 °F87 %30.24 in3.1 miENE (70°)9.2 mphPartly Cloudy
5:20 PM37.4 °F35.6 °F93 %30.24 in3.1 miENE (70°)9.2 mphMist
6:20 PM37.4 °F33.8 °F87 %30.27 in3.1 miSE (130°)4.6 mphMist
7:20 PM33.8 °F32.0 °F93 %30.27 in2.5 miEast (100°)5.8 mphMist
8:20 PM33.8 °F33.8 °F100 %30.30 in2.5 miSE (140°)5.8 mphMist
9:20 PM32.0 °F32.0 °F100 %30.30 in2.5 miENE (70°)5.8 mphMist
10:20 PM33.8 °F32.0 °F93 %30.30 in1.9 miSE (130°)4.6 mphMist
10:37 PM33.8 °F32.0 °F93 %30.30 in0.9 miSSE (150°)6.9 mphSmoke
11:20 PM32.0 °F32.0 °F100 %30.30 in1.1 miEast (100°)2.3 mphSmoke
11:48 PM30.2 °F30.2 °F100 %30.30 in0.8 miEast (100°)3.5 mphSmoke
Hourly data recorded from OAKB, located miles away from Kabul, Afghanistan







STORIES FROM OUR PARTNERS